Time,TemperatureF,DewpointF,PressureIn,WindDirection,WindDirectionDegrees,WindSpeedMPH,WindSpeedGustMPH,Humidity,HourlyPrecipIn,Conditions,Clouds,dailyrainin,SoftwareType,DateUTC
2013-04-30 00:08:00,56.9,49.0,29.75,West,273,0.0,0.0,74,0.00,,,0.00,weatherlink.com 1.10,2013-04-30 07:08:00,
2013-04-30 00:23:00,56.1,48.0,29.75,West,273,0.0,0.0,75,0.00,,,0.00,weatherlink.com 1.10,2013-04-30 07:23:00,
2013-04-30 00:38:00,55.8,48.0,29.75,West,273,0.0,0.0,76,0.00,,,0.00,weatherlink.com 1.10,2013-04-30 07:38:00,
2013-04-30 00:53:00,55.3,49.0,29.75,West,272,0.0,0.0,78,0.00,,,0.00,weatherlink.com 1.10,2013-04-30 07:53:00,
2013-04-30 01:08:00,54.9,48.0,29.75,West,273,0.0,0.0,78,0.00,,,0.00,weatherlink.com 1.10,2013-04-30 08:08:00,
2013-04-30 01:23:00,54.2,48.0,29.75,West,272,0.0,0.0,80,0.00,,,0.00,weatherlink.com 1.10,2013-04-30 08:23:00,
2013-04-30 01:38:00,54.1,48.0,29.75,West,273,0.0,0.0,79,0.00,,,0.00,weatherlink.com 1.10,2013-04-30 08:38:00,
2013-04-30 01:53:00,53.6,48.0,29.75,West,272,0.0,0.0,81,0.00,,,0.00,weatherlink.com 1.10,2013-04-30 08:53:00,
2013-04-30 02:08:00,53.4,48.0,29.75,West,273,0.0,0.0,81,0.00,,,0.00,weatherlink.com 1.10,2013-04-30 09:08:00,
2013-04-30 02:23:00,52.7,47.0,29.74,West,272,0.0,0.0,82,0.00,,,0.00,weatherlink.com 1.10,2013-04-30 09:23:00,
2013-04-30 02:38:00,52.4,47.0,29.75,West,272,0.0,0.0,83,0.00,,,0.00,weatherlink.com 1.10,2013-04-30 09:38:00,
2013-04-30 02:53:00,52.0,47.0,29.74,West,273,0.0,0.0,84,0.00,,,0.00,weatherlink.com 1.10,2013-04-30 09:53:00,
2013-04-30 03:08:00,51.5,47.0,29.75,West,273,0.0,0.0,85,0.00,,,0.00,weatherlink.com 1.10,2013-04-30 10:08:00,
2013-04-30 03:23:00,51.4,47.0,29.74,West,272,0.0,0.0,85,0.00,,,0.00,weatherlink.com 1.10,2013-04-30 10:23:00,
2013-04-30 03:39:00,51.0,47.0,29.74,West,272,0.0,0.0,86,0.00,,,0.00,weatherlink.com 1.10,2013-04-30 10:39:00,
2013-04-30 03:54:00,50.8,47.0,29.75,West,273,0.0,0.0,86,0.00,,,0.00,weatherlink.com 1.10,2013-04-30 10:54:00,
2013-04-30 04:09:00,50.5,47.0,29.75,West,272,0.0,0.0,87,0.00,,,0.00,weatherlink.com 1.10,2013-04-30 11:09:00,
2013-04-30 04:24:00,50.1,47.0,29.75,West,273,0.0,0.0,88,0.00,,,0.00,weatherlink.com 1.10,2013-04-30 11:24:00,
2013-04-30 04:39:00,49.9,47.0,29.75,West,273,0.0,0.0,88,0.00,,,0.00,weatherlink.com 1.10,2013-04-30 11:39:00,
2013-04-30 04:54:00,49.7,46.0,29.75,West,273,0.0,0.0,88,0.00,,,0.00,weatherlink.com 1.10,2013-04-30 11:54:00,
2013-04-30 05:09:00,49.3,46.0,29.75,West,272,0.0,0.0,89,0.00,,,0.00,weatherlink.com 1.10,2013-04-30 12:09:00,
2013-04-30 05:24:00,49.2,46.0,29.75,West,273,0.0,0.0,89,0.00,,,0.00,weatherlink.com 1.10,2013-04-30 12:24:00,
2013-04-30 05:39:00,49.0,46.0,29.76,West,273,0.0,0.0,89,0.00,,,0.00,weatherlink.com 1.10,2013-04-30 12:39:00,
2013-04-30 05:54:00,48.7,46.0,29.75,West,273,0.0,0.0,89,0.00,,,0.00,weatherlink.com 1.10,2013-04-30 12:54:00,
2013-04-30 06:09:00,48.5,46.0,29.76,NW,311,0.0,0.0,90,0.00,,,0.00,weatherlink.com 1.10,2013-04-30 13:09:00,
2013-04-30 06:24:00,48.2,46.0,29.76,SW,226,0.0,1.0,90,0.00,,,0.00,weatherlink.com 1.10,2013-04-30 13:24:00,
2013-04-30 06:39:00,48.1,46.0,29.76,NW,320,0.0,1.0,91,0.00,,,0.00,weatherlink.com 1.10,2013-04-30 13:39:00,
2013-04-30 06:54:00,48.0,46.0,29.77,NNW,328,0.0,1.0,91,0.00,,,0.00,weatherlink.com 1.10,2013-04-30 13:54:00,
2013-04-30 07:09:00,48.0,46.0,29.78,NE,37,0.0,1.0,91,0.00,,,0.00,weatherlink.com 1.10,2013-04-30 14:09:00,
2013-04-30 07:24:00,48.2,46.0,29.78,NE,37,0.0,1.0,91,0.00,,,0.00,weatherlink.com 1.10,2013-04-30 14:24:00,
2013-04-30 07:39:00,48.5,46.0,29.78,NE,37,0.0,0.0,91,0.00,,,0.00,weatherlink.com 1.10,2013-04-30 14:39:00,
2013-04-30 07:54:00,49.2,47.0,29.78,SE,127,0.0,0.0,91,0.00,,,0.00,weatherlink.com 1.10,2013-04-30 14:54:00,
2013-04-30 08:09:00,50.4,48.0,29.78,WSW,242,0.0,1.0,90,0.00,,,0.00,weatherlink.com 1.10,2013-04-30 15:09:00,
2013-04-30 08:24:00,51.5,48.0,29.78,WSW,246,0.0,1.0,89,0.00,,,0.00,weatherlink.com 1.10,2013-04-30 15:24:00,
2013-04-30 08:39:00,53.3,50.0,29.78,NW,316,0.0,1.0,88,0.00,,,0.00,weatherlink.com 1.10,2013-04-30 15:39:00,
2013-04-30 08:54:00,55.2,51.0,29.78,NNW,339,0.0,1.0,86,0.00,,,0.00,weatherlink.com 1.10,2013-04-30 15:54:00,
2013-04-30 09:09:00,56.7,51.0,29.78,West,269,0.0,1.0,82,0.00,,,0.00,weatherlink.com 1.10,2013-04-30 16:09:00,
2013-04-30 09:24:00,57.8,52.0,29.78,WSW,251,0.0,1.0,81,0.00,,,0.00,weatherlink.com 1.10,2013-04-30 16:24:00,
2013-04-30 09:39:00,59.5,53.0,29.78,NW,308,1.0,1.0,78,0.00,,,0.00,weatherlink.com 1.10,2013-04-30 16:39:00,
2013-04-30 09:54:00,61.3,53.0,29.78,WSW,257,0.0,1.0,75,0.00,,,0.00,weatherlink.com 1.10,2013-04-30 16:54:00,
2013-04-30 10:09:00,62.8,54.0,29.79,WSW,248,1.0,3.0,73,0.00,,,0.00,weatherlink.com 1.10,2013-04-30 17:09:00,
2013-04-30 10:24:00,65.6,50.0,29.79,SW,221,0.0,4.0,58,0.00,,,0.00,weatherlink.com 1.10,2013-04-30 17:24:00,
2013-04-30 10:39:00,68.9,41.0,29.80,SE,130,0.0,5.0,36,0.00,,,0.00,weatherlink.com 1.10,2013-04-30 17:39:00,
2013-04-30 10:56:00,70.1,36.0,29.80,NW,307,3.0,7.0,29,0.00,,,0.00,weatherlink.com 1.10,2013-04-30 17:56:00,
2013-04-30 11:10:00,70.9,38.0,29.80,WNW,297,0.0,4.0,30,0.00,,,0.00,weatherlink.com 1.10,2013-04-30 18:10:00,
2013-04-30 11:25:00,71.5,39.0,29.80,West,267,1.0,7.0,31,0.00,,,0.00,weatherlink.com 1.10,2013-04-30 18:25:00,
2013-04-30 11:40:00,71.8,37.0,29.79,WSW,253,1.0,10.0,28,0.00,,,0.00,weatherlink.com 1.10,2013-04-30 18:40:00,
2013-04-30 11:55:00,72.9,42.0,29.80,WNW,296,3.0,5.0,33,0.00,,,0.00,weatherlink.com 1.10,2013-04-30 18:55:00,
2013-04-30 12:10:00,73.7,40.0,29.79,SSW,208,1.0,6.0,30,0.00,,,0.00,weatherlink.com 1.10,2013-04-30 19:10:00,
2013-04-30 12:25:00,74.1,38.0,29.79,SE,134,4.0,7.0,27,0.00,,,0.00,weatherlink.com 1.10,2013-04-30 19:25:00,
2013-04-30 12:40:00,75.7,37.0,29.79,SW,232,0.0,4.0,25,0.00,,,0.00,weatherlink.com 1.10,2013-04-30 19:40:00,
2013-04-30 12:55:00,76.0,37.0,29.78,SE,140,1.0,7.0,24,0.00,,,0.00,weatherlink.com 1.10,2013-04-30 19:55:00,
2013-04-30 13:10:00,76.6,37.0,29.78,SE,124,2.0,7.0,24,0.00,,,0.00,weatherlink.com 1.10,2013-04-30 20:10:00,
2013-04-30 13:25:00,76.2,35.0,29.78,WNW,294,1.0,10.0,22,0.00,,,0.00,weatherlink.com 1.10,2013-04-30 20:25:00,
2013-04-30 13:40:00,76.4,38.0,29.78,ESE,120,4.0,5.0,25,0.00,,,0.00,weatherlink.com 1.10,2013-04-30 20:40:00,
2013-04-30 13:55:00,76.6,36.0,29.77,ESE,122,2.0,5.0,23,0.00,,,0.00,weatherlink.com 1.10,2013-04-30 20:55:00,
2013-04-30 14:10:00,76.5,35.0,29.77,East,89,2.0,13.0,22,0.00,,,0.00,weatherlink.com 1.10,2013-04-30 21:10:00,
2013-04-30 14:25:00,77.6,36.0,29.78,SW,224,1.0,11.0,22,0.00,,,0.00,weatherlink.com 1.10,2013-04-30 21:25:00,
2013-04-30 14:40:00,77.0,37.0,29.77,West,260,5.0,7.0,24,0.00,,,0.00,weatherlink.com 1.10,2013-04-30 21:40:00,
2013-04-30 14:55:00,77.0,40.0,29.77,WSW,240,5.0,8.0,26,0.00,,,0.00,weatherlink.com 1.10,2013-04-30 21:55:00,
2013-04-30 15:10:00,77.0,39.0,29.77,West,266,1.0,3.0,25,0.00,,,0.00,weatherlink.com 1.10,2013-04-30 22:10:00,
2013-04-30 15:25:00,78.2,40.0,29.76,West,266,1.0,8.0,25,0.00,,,0.00,weatherlink.com 1.10,2013-04-30 22:25:00,
2013-04-30 15:40:00,78.5,40.0,29.76,WSW,238,4.0,8.0,25,0.00,,,0.00,weatherlink.com 1.10,2013-04-30 22:40:00,
2013-04-30 15:55:00,77.8,40.0,29.76,WNW,287,1.0,9.0,26,0.00,,,0.00,weatherlink.com 1.10,2013-04-30 22:55:00,
2013-04-30 16:10:00,77.2,40.0,29.75,West,269,2.0,4.0,26,0.00,,,0.00,weatherlink.com 1.10,2013-04-30 23:10:00,
2013-04-30 16:25:00,77.3,41.0,29.75,ENE,75,1.0,3.0,27,0.00,,,0.00,weatherlink.com 1.10,2013-04-30 23:25:00,
2013-04-30 16:40:00,77.0,40.0,29.75,SW,217,2.0,4.0,27,0.00,,,0.00,weatherlink.com 1.10,2013-04-30 23:40:00,
2013-04-30 16:55:00,76.9,40.0,29.75,SE,146,1.0,2.0,27,0.00,,,0.00,weatherlink.com 1.10,2013-04-30 23:55:00,
2013-04-30 17:10:00,76.9,39.0,29.75,South,191,1.0,3.0,26,0.00,,,0.00,weatherlink.com 1.10,2013-05-01 00:10:00,
2013-04-30 17:25:00,77.0,40.0,29.75,ESE,123,1.0,8.0,26,0.00,,,0.00,weatherlink.com 1.10,2013-05-01 00:25:00,
2013-04-30 17:40:00,77.5,40.0,29.75,ESE,112,6.0,6.0,26,0.00,,,0.00,weatherlink.com 1.10,2013-05-01 00:40:00,
2013-04-30 17:55:00,77.3,40.0,29.75,NW,316,4.0,5.0,26,0.00,,,0.00,weatherlink.com 1.10,2013-05-01 00:55:00,
2013-04-30 18:10:00,77.1,42.0,29.75,East,96,0.0,3.0,29,0.00,,,0.00,weatherlink.com 1.10,2013-05-01 01:10:00,
2013-04-30 18:25:00,76.4,43.0,29.75,NW,311,0.0,3.0,30,0.00,,,0.00,weatherlink.com 1.10,2013-05-01 01:25:00,
2013-04-30 18:40:00,75.2,45.0,29.75,WSW,240,0.0,3.0,34,0.00,,,0.00,weatherlink.com 1.10,2013-05-01 01:40:00,
2013-04-30 18:55:00,74.0,47.0,29.76,WSW,240,0.0,0.0,38,0.00,,,0.00,weatherlink.com 1.10,2013-05-01 01:55:00,
2013-04-30 19:10:00,72.1,46.0,29.76,WSW,240,0.0,1.0,40,0.00,,,0.00,weatherlink.com 1.10,2013-05-01 02:10:00,
2013-04-30 19:25:00,70.8,48.0,29.76,WSW,240,0.0,0.0,45,0.00,,,0.00,weatherlink.com 1.10,2013-05-01 02:25:00,
2013-04-30 19:40:00,69.5,48.0,29.77,WSW,240,0.0,0.0,46,0.00,,,0.00,weatherlink.com 1.10,2013-05-01 02:40:00,
2013-04-30 19:55:00,67.7,47.0,29.77,WNW,302,0.0,1.0,48,0.00,,,0.00,weatherlink.com 1.10,2013-05-01 02:55:00,
2013-04-30 20:10:00,66.6,48.0,29.77,WNW,302,0.0,0.0,52,0.00,,,0.00,weatherlink.com 1.10,2013-05-01 03:10:00,
2013-04-30 20:25:00,65.1,48.0,29.78,NW,323,0.0,1.0,55,0.00,,,0.00,weatherlink.com 1.10,2013-05-01 03:25:00,
2013-04-30 20:40:00,63.8,48.0,29.78,ESE,102,1.0,1.0,57,0.00,,,0.00,weatherlink.com 1.10,2013-05-01 03:40:00,
2013-04-30 20:55:00,62.6,48.0,29.78,East,101,0.0,1.0,59,0.00,,,0.00,weatherlink.com 1.10,2013-05-01 03:55:00,
2013-04-30 21:10:00,61.7,47.0,29.79,West,266,0.0,1.0,60,0.00,,,0.00,weatherlink.com 1.10,2013-05-01 04:10:00,
2013-04-30 21:25:00,60.8,48.0,29.79,ENE,57,0.0,1.0,62,0.00,,,0.00,weatherlink.com 1.10,2013-05-01 04:25:00,
2013-04-30 21:40:00,59.9,48.0,29.80,ESE,112,0.0,1.0,64,0.00,,,0.00,weatherlink.com 1.10,2013-05-01 04:40:00,
2013-04-30 21:55:00,59.0,47.0,29.80,ESE,112,0.0,1.0,65,0.00,,,0.00,weatherlink.com 1.10,2013-05-01 04:55:00,
2013-04-30 22:10:00,58.3,47.0,29.80,East,100,0.0,1.0,67,0.00,,,0.00,weatherlink.com 1.10,2013-05-01 05:10:00,
2013-04-30 22:25:00,57.7,47.0,29.80,SE,143,0.0,2.0,67,0.00,,,0.00,weatherlink.com 1.10,2013-05-01 05:25:00,
2013-04-30 22:40:00,57.0,46.0,29.80,ESE,103,0.0,1.0,67,0.00,,,0.00,weatherlink.com 1.10,2013-05-01 05:40:00,
2013-04-30 22:55:00,56.5,46.0,29.81,ESE,103,0.0,1.0,68,0.00,,,0.00,weatherlink.com 1.10,2013-05-01 05:55:00,
2013-04-30 23:10:00,55.7,45.0,29.81,East,95,0.0,1.0,68,0.00,,,0.00,weatherlink.com 1.10,2013-05-01 06:10:00,
2013-04-30 23:25:00,55.3,45.0,29.81,East,96,0.0,0.0,69,0.00,,,0.00,weatherlink.com 1.10,2013-05-01 06:25:00,
2013-04-30 23:40:00,54.2,45.0,29.81,East,84,0.0,2.0,70,0.00,,,0.00,weatherlink.com 1.10,2013-05-01 06:40:00,
2013-04-30 23:55:00,53.7,44.0,29.82,SE,127,0.0,1.0,71,0.00,,,0.00,weatherlink.com 1.10,2013-05-01 06:55:00,